QPF
0.00 0.00 0.00 0.00 0.00 0.00 0.00 0.00 0.00 0.00 0.00 0.00 0.00 0.00 0.00 0.00 0.00 0.00 0.00 0.00 0.00 0.00 0.00 0.01 0.01 0.01 0.01 0.00 0.00 0.00 0.00 0.00 0.00 0.01 0.01 0.01 0.00 0.00 0.00 0.00 0.00 0.00 0.00 0.00 0.00 0.00 0.00 0.00 0.00
0.00 0.00 0.00 0.00 0.00 0.00 0.00 0.00 0.00 0.00 0.00 0.00 0.00 0.00 0.00 0.00 0.00 0.00 0.00 0.00 0.00 0.00 0.00 0.00 0.00 0.01 0.01 0.00 0.00 0.00 0.00 0.00 0.00 0.00 0.00 0.00 0.00 0.00 0.00 0.00 0.00 0.00 0.00 0.00 0.00 0.00 0.00 0.00 0.00
0.00 0.00 0.00 0.00 0.00 0.00 0.00 0.00 0.00 0.00 0.00 0.00 0.00 0.00 0.00 0.00 0.00 0.00 0.00 0.00 0.00 0.00 0.00 0.00 0.00 0.00 0.01 0.00 0.00 0.00 0.00 0.00 0.00 0.00 0.00 0.00 0.00 0.00 0.00 0.00 0.00 0.00 0.00 0.00 0.00 0.00 0.00 0.00 0.00
0.00 0.00 0.00 0.00 0.00 0.00 0.00 0.00 0.00 0.00 0.00 0.00 0.00 0.00 0.00 0.00 0.00 0.00 0.00 0.00 0.00 0.00 0.00 0.00 0.00 0.00 0.01 0.00 0.00 0.00 0.00 0.00 0.00 0.00 0.00 0.00 0.01 0.01 0.01 0.00 0.00 0.00 0.00 0.00 0.00 0.00 0.00 0.00 0.00
0.00 0.00 0.00 0.00 0.00 0.00 0.00 0.00 0.00 0.00 0.00 0.00 0.00 0.00 0.00 0.00 0.00 0.00 0.00 0.00 0.00 0.00 0.00 0.00 0.00 0.00 0.00 0.00 0.00 0.00 0.00 0.00 0.00 0.00 0.00 0.00 0.01 0.01 0.02 0.01 0.00 0.00 0.00 0.00 0.00 0.00 0.00 0.00 0.00
0.00 0.00 0.00 0.00 0.00 0.00 0.00 0.00 0.00 0.00 0.00 0.00 0.00 0.00 0.00 0.00 0.00 0.00 0.00 0.00 0.00 0.00 0.00 0.00 0.00 0.00 0.00 0.00 0.00 0.00 0.00 0.00 0.00 0.00 0.00 0.00 0.00 0.01 0.01 0.01 0.00 0.00 0.00 0.00 0.00 0.00 0.00 0.00 0.00
0.00 0.00 0.00 0.00 0.00 0.00 0.00 0.00 0.00 0.00 0.00 0.00 0.00 0.00 0.00 0.00 0.00 0.00 0.00 0.00 0.00 0.00 0.00 0.00 0.00 0.00 0.00 0.00 0.00 0.00 0.00 0.00 0.00 0.00 0.00 0.00 0.00 0.00 0.01 0.00 0.00 0.00 0.00 0.00 0.00 0.00 0.00 0.00 0.00
0.00 0.00 0.00 0.00 0.00 0.00 0.00 0.00 0.00 0.00 0.00 0.00 0.00 0.00 0.00 0.00 0.00 0.00 0.00 0.00 0.00 0.00 0.00 0.00 0.00 0.00 0.00 0.00 0.00 0.00 0.00 0.00 0.00 0.00 0.00 0.00 0.00 0.00 0.00 0.00 0.00 0.00 0.00 0.00 0.00 0.00 0.00 0.00 0.00
0.00 0.00 0.00 0.00 0.00 0.00 0.00 0.00 0.00 0.00 0.00 0.00 0.00 0.00 0.00 0.00 0.00 0.00 0.00 0.00 0.00 0.00 0.00 0.00 0.00 0.00 0.00 0.00 0.00 0.00 0.00 0.00 0.00 0.00 0.00 0.00 0.00 0.00 0.00 0.00 0.00 0.00 0.00 0.00 0.00 0.00 0.01 0.01 0.00
0.00 0.00 0.00 0.00 0.00 0.00 0.00 0.00 0.00 0.00 0.00 0.00 0.00 0.00 0.00 0.00 0.00 0.00 0.00 0.00 0.00 0.00 0.00 0.00 0.00 0.00 0.00 0.00 0.00 0.00 0.00 0.00 0.00 0.00 0.00 0.00 0.00 0.00 0.00 0.00 0.00 0.00 0.00 0.00 0.00 0.00 0.00 0.00 0.00
0.00 0.00 0.00 0.00 0.00 0.00 0.00 0.00 0.00 0.00 0.00 0.00 0.00 0.00 0.00 0.00 0.00 0.00 0.00 0.00 0.00 0.00 0.00 0.00 0.00 0.00 0.00 0.00 0.00 0.00 0.00 0.00 0.00 0.00 0.00 0.00 0.00 0.00 0.00 0.00 0.00 0.00 0.00 0.00 0.00 0.00 0.00 0.00 0.00
0.00 0.00 0.00 0.00 0.00 0.00 0.00 0.00 0.00 0.00 0.00 0.00 0.00 0.00 0.00 0.00 0.00 0.00 0.00 0.00 0.00 0.00 0.00 0.00 0.00 0.00 0.00 0.00 0.00 0.00 0.00 0.00 0.00 0.00 0.00 0.00 0.00 0.00 0.00 0.00 0.00 0.00 0.00 0.00 0.00 0.00 0.00 0.00 0.00
0.00 0.00 0.00 0.00 0.00 0.00 0.00 0.00 0.00 0.00 0.00 0.00 0.00 0.00 0.00 0.00 0.00 0.00 0.00 0.00 0.00 0.00 0.00 0.00 0.00 0.00 0.00 0.00 0.00 0.00 0.00 0.00 0.00 0.00 0.00 0.00 0.00 0.00 0.00 0.00 0.00 0.00 0.00 0.00 0.00 0.00 0.00 0.00 0.00
0.00 0.00 0.00 0.00 0.00 0.00 0.00 0.00 0.00 0.00 0.00 0.00 0.00 0.00 0.00 0.00 0.00 0.00 0.00 0.00 0.00 0.00 0.00 0.00 0.00 0.00 0.00 0.00 0.00 0.00 0.00 0.00 0.00 0.00 0.00 0.00 0.00 0.00 0.00 0.00 0.00 0.00 0.00 0.00 0.00 0.00 0.00 0.00 0.00
0.00 0.00 0.00 0.00 0.00 0.00 0.00 0.00 0.00 0.00 0.00 0.00 0.00 0.00 0.00 0.00 0.00 0.00 0.00 0.00 0.00 0.00 0.00 0.00 0.00 0.00 0.00 0.00 0.00 0.01 0.00 0.00 0.00 0.00 0.00 0.00 0.00 0.00 0.00 0.00 0.00 0.00 0.00 0.00 0.00 0.00 0.00 0.00 0.00
0.00 0.00 0.00 0.00 0.00 0.00 0.00 0.00 0.00 0.00 0.00 0.00 0.00 0.00 0.00 0.00 0.00 0.00 0.00 0.00 0.00 0.00 0.00 0.00 0.00 0.00 0.00 0.00 0.01 0.01 0.01 0.00 0.00 0.00 0.00 0.00 0.00 0.00 0.00 0.00 0.00 0.00 0.00 0.00 0.00 0.00 0.00 0.00 0.00
0.01 0.00 0.00 0.00 0.00 0.00 0.00 0.00 0.00 0.00 0.00 0.00 0.00 0.00 0.00 0.00 0.00 0.00 0.00 0.00 0.00 0.00 0.00 0.00 0.00 0.00 0.00 0.01 0.02 0.02 0.01 0.00 0.00 0.00 0.00 0.00 0.00 0.00 0.00 0.00 0.00 0.00 0.00 0.00 0.00 0.00 0.00 0.00 0.00
0.00 0.00 0.00 0.00 0.00 0.00 0.00 0.00 0.00 0.00 0.00 0.00 0.00 0.00 0.00 0.00 0.00 0.00 0.00 0.00 0.00 0.00 0.00 0.00 0.00 0.00 0.00 0.01 0.02 0.03 0.01 0.00 0.00 0.00 0.00 0.00 0.00 0.00 0.00 0.00 0.00 0.00 0.00 0.00 0.00 0.00 0.00 0.00 0.00
0.00 0.00 0.00 0.00 0.00 0.00 0.00 0.00 0.00 0.00 0.00 0.00 0.00 0.00 0.00 0.00 0.00 0.00 0.00 0.00 0.00 0.00 0.00 0.00 0.00 0.00 0.00 0.01 0.02 0.02 0.01 0.01 0.00 0.00 0.00 0.00 0.00 0.00 0.00 0.00 0.00 0.00 0.00 0.00 0.00 0.00 0.00 0.00 0.00
0.00 0.00 0.00 0.00 0.00 0.00 0.00 0.00 0.00 0.00 0.00 0.00 0.00 0.00 0.00 0.00 0.00 0.00 0.00 0.00 0.00 0.00 0.00 0.00 0.00 0.00 0.00 0.01 0.02 0.03 0.02 0.01 0.00 0.00 0.00 0.00 0.00 0.00 0.00 0.00 0.00 0.00 0.00 0.00 0.00 0.00 0.00 0.00 0.00
0.00 0.00 0.00 0.00 0.00 0.00 0.00 0.00 0.00 0.00 0.00 0.00 0.00 0.00 0.00 0.00 0.00 0.00 0.00 0.00 0.00 0.00 0.00 0.00 0.00 0.00 0.00 0.01 0.03 0.03 0.02 0.01 0.00 0.00 0.00 0.00 0.00 0.00 0.00 0.00 0.00 0.00 0.00 0.00 0.00 0.00 0.00 0.00 0.00
0.00 0.00 0.00 0.00 0.00 0.00 0.00 0.00 0.00 0.00 0.00 0.00 0.00 0.00 0.00 0.00 0.00 0.00 0.00 0.00 0.00 0.00 0.00 0.00 0.00 0.00 0.00 0.01 0.02 0.02 0.01 0.00 0.00 0.00 0.00 0.00 0.00 0.00 0.00 0.00 0.00 0.00 0.00 0.00 0.00 0.00 0.00 0.00 0.00
0.00 0.00 0.00 0.00 0.01 0.01 0.00 0.00 0.00 0.00 0.00 0.00 0.00 0.00 0.00 0.00 0.00 0.00 0.00 0.00 0.00 0.00 0.00 0.00 0.00 0.00 0.00 0.00 0.01 0.01 0.01 0.00 0.00 0.00 0.00 0.00 0.00 0.00 0.00 0.00 0.00 0.00 0.00 0.00 0.00 0.00 0.00 0.00 0.00
0.00 0.02 0.02 0.02 0.04 0.03 0.00 0.00 0.00 0.00 0.00 0.00 0.00 0.00 0.00 0.00 0.00 0.00 0.00 0.00 0.00 0.00 0.00 0.00 0.00 0.00 0.00 0.00 0.00 0.00 0.00 0.00 0.00 0.00 0.00 0.00 0.00 0.00 0.00 0.00 0.00 0.00 0.00 0.00 0.00 0.00 0.00 0.00 0.00
0.01 0.07 0.11 0.07 0.06 0.02 0.00 0.00 0.00 0.00 0.00 0.00 0.00 0.00 0.00 0.00 0.00 0.00 0.00 0.00 0.00 0.00 0.00 0.00 0.00 0.00 0.00 0.00 0.00 0.00 0.00 0.00 0.00 0.00 0.00 0.00 0.00 0.00 0.00 0.00 0.00 0.00 0.00 0.00 0.00 0.00 0.00 0.00 0.00
0.01 0.04 0.08 0.05 0.02 0.00 0.00 0.00 0.00 0.00 0.00 0.00 0.00 0.00 0.00 0.00 0.00 0.00 0.00 0.00 0.00 0.00 0.00 0.00 0.00 0.00 0.00 0.00 0.00 0.00 0.00 0.00 0.00 0.00 0.00 0.00 0.00 0.00 0.00 0.00 0.00 0.00 0.00 0.00 0.00 0.00 0.00 0.00 0.00
0.04 0.05 0.03 0.10 0.09 0.04 0.01 0.00 0.00 0.00 0.00 0.00 0.00 0.00 0.00 0.00 0.00 0.00 0.00 0.00 0.00 0.00 0.00 0.00 0.00 0.00 0.00 0.00 0.00 0.00 0.00 0.00 0.00 0.00 0.00 0.00 0.00 0.00 0.00 0.00 0.00 0.00 0.00 0.00 0.00 0.00 0.00 0.00 0.00
0.02 0.03 0.07 0.18 0.14 0.06 0.01 0.00 0.00 0.00 0.00 0.00 0.00 0.00 0.00 0.00 0.00 0.00 0.00 0.00 0.00 0.00 0.00 0.00 0.00 0.00 0.00 0.00 0.00 0.00 0.00 0.00 0.00 0.00 0.00 0.00 0.00 0.00 0.00 0.00 0.00 0.00 0.00 0.00 0.00 0.00 0.00 0.00 0.00
0.02 0.04 0.07 0.09 0.05 0.03 0.02 0.01 0.01 0.00 0.00 0.00 0.00 0.00 0.00 0.00 0.00 0.00 0.00 0.00 0.00 0.00 0.00 0.00 0.00 0.00 0.00 0.00 0.00 0.00 0.00 0.00 0.00 0.00 0.00 0.00 0.00 0.00 0.00 0.00 0.00 0.00 0.00 0.00 0.00 0.00 0.00 0.00 0.00
0.05 0.04 0.05 0.09 0.05 0.03 0.03 0.02 0.01 0.01 0.01 0.01 0.02 0.02 0.01 0.01 0.01 0.00 0.00 0.00 0.00 0.00 0.00 0.00 0.00 0.00 0.00 0.00 0.00 0.00 0.00 0.00 0.00 0.00 0.00 0.00 0.00 0.00 0.00 0.00 0.00 0.00 0.00 0.00 0.00 0.00 0.00 0.00 0.00
MSLP
1011.82 1012.49 1013.37 1014.31 1015.15 1015.75 1016.02 1015.93 1015.52 1014.87 1014.12 1013.39 1012.79 1012.36 1012.09 1011.94 1011.83 1011.69 1011.49 1011.22 1010.92 1010.66 1010.51 1010.52 1010.72 1011.09 1011.57 1012.08 1012.56 1012.93 1013.19 1013.33 1013.41 1013.46 1013.54 1013.67 1013.86 1014.10 1014.35 1014.57 1014.74 1014.84 1014.88 1014.88 1014.86 1014.86 1014.88 1014.94 1015.02
1012.31 1013.12 1014.08 1015.02 1015.79 1016.26 1016.34 1016.03 1015.39 1014.54 1013.62 1012.77 1012.08 1011.61 1011.34 1011.21 1011.14 1011.07 1010.94 1010.76 1010.55 1010.37 1010.30 1010.38 1010.63 1011.04 1011.54 1012.08 1012.57 1012.96 1013.25 1013.42 1013.52 1013.59 1013.68 1013.81 1013.99 1014.20 1014.43 1014.64 1014.80 1014.92 1014.99 1015.02 1015.04 1015.05 1015.08 1015.11 1015.15
1012.85 1013.74 1014.70 1015.59 1016.24 1016.53 1016.42 1015.91 1015.08 1014.08 1013.04 1012.12 1011.39 1010.90 1010.64 1010.53 1010.51 1010.49 1010.42 1010.32 1010.19 1010.11 1010.12 1010.27 1010.58 1011.01 1011.54 1012.08 1012.57 1012.98 1013.27 1013.47 1013.59 1013.68 1013.77 1013.90 1014.06 1014.25 1014.45 1014.64 1014.79 1014.91 1015.00 1015.05 1015.10 1015.13 1015.16 1015.19 1015.20
1013.39 1014.29 1015.20 1015.97 1016.45 1016.56 1016.26 1015.59 1014.64 1013.55 1012.47 1011.53 1010.81 1010.34 1010.09 1010.01 1010.01 1010.02 1010.01 1009.98 1009.93 1009.93 1010.02 1010.24 1010.59 1011.05 1011.57 1012.10 1012.58 1012.98 1013.27 1013.47 1013.61 1013.72 1013.83 1013.96 1014.11 1014.28 1014.45 1014.61 1014.75 1014.86 1014.95 1015.02 1015.07 1015.12 1015.16 1015.18 1015.18
1013.90 1014.75 1015.55 1016.16 1016.46 1016.39 1015.94 1015.15 1014.14 1013.04 1011.98 1011.09 1010.42 1009.99 1009.77 1009.71 1009.72 1009.76 1009.78 1009.79 1009.81 1009.88 1010.04 1010.31 1010.69 1011.16 1011.66 1012.16 1012.61 1012.97 1013.25 1013.45 1013.61 1013.74 1013.87 1014.01 1014.17 1014.33 1014.48 1014.61 1014.72 1014.81 1014.89 1014.95 1015.01 1015.06 1015.10 1015.12 1015.12
1014.36 1015.11 1015.76 1016.18 1016.30 1016.07 1015.51 1014.67 1013.66 1012.62 1011.66 1010.86 1010.28 1009.91 1009.73 1009.67 1009.68 1009.72 1009.75 1009.79 1009.85 1009.97 1010.18 1010.49 1010.88 1011.33 1011.81 1012.25 1012.65 1012.97 1013.23 1013.43 1013.60 1013.76 1013.93 1014.10 1014.27 1014.42 1014.56 1014.67 1014.75 1014.81 1014.86 1014.91 1014.96 1015.01 1015.05 1015.07 1015.08
1014.73 1015.35 1015.83 1016.07 1016.03 1015.67 1015.04 1014.21 1013.28 1012.35 1011.52 1010.86 1010.38 1010.09 1009.93 1009.88 1009.87 1009.88 1009.90 1009.94 1010.02 1010.17 1010.40 1010.73 1011.12 1011.55 1011.98 1012.37 1012.71 1012.99 1013.22 1013.42 1013.62 1013.81 1014.01 1014.22 1014.41 1014.58 1014.71 1014.80 1014.86 1014.89 1014.91 1014.94 1014.97 1015.01 1015.05 1015.08 1015.09
1015.00 1015.48 1015.79 1015.86 1015.68 1015.24 1014.60 1013.82 1012.99 1012.22 1011.55 1011.03 1010.66 1010.44 1010.30 1010.23 1010.19 1010.15 1010.14 1010.16 1010.24 1010.40 1010.64 1010.97 1011.35 1011.75 1012.13 1012.47 1012.77 1013.01 1013.23 1013.43 1013.65 1013.88 1014.12 1014.37 1014.59 1014.77 1014.91 1014.99 1015.02 1015.03 1015.03 1015.04 1015.06 1015.09 1015.13 1015.16 1015.18
1015.16 1015.49 1015.65 1015.58 1015.30 1014.82 1014.19 1013.50 1012.81 1012.18 1011.67 1011.29 1011.03 1010.85 1010.72 1010.62 1010.52 1010.43 1010.36 1010.35 1010.41 1010.56 1010.81 1011.13 1011.50 1011.87 1012.22 1012.53 1012.79 1013.01 1013.22 1013.44 1013.68 1013.95 1014.23 1014.51 1014.77 1014.97 1015.11 1015.19 1015.22 1015.22 1015.21 1015.21 1015.22 1015.26 1015.30 1015.34 1015.36
1015.20 1015.40 1015.42 1015.25 1014.90 1014.41 1013.83 1013.23 1012.67 1012.19 1011.82 1011.54 1011.35 1011.20 1011.06 1010.91 1010.75 1010.60 1010.48 1010.42 1010.45 1010.59 1010.83 1011.14 1011.50 1011.86 1012.19 1012.49 1012.74 1012.96 1013.19 1013.42 1013.69 1013.99 1014.31 1014.62 1014.90 1015.12 1015.28 1015.37 1015.40 1015.41 1015.42 1015.43 1015.45 1015.49 1015.54 1015.58 1015.61
1015.12 1015.22 1015.14 1014.89 1014.50 1014.02 1013.49 1012.98 1012.52 1012.16 1011.89 1011.69 1011.54 1011.39 1011.22 1011.02 1010.80 1010.58 1010.40 1010.30 1010.31 1010.42 1010.65 1010.96 1011.31 1011.67 1012.02 1012.32 1012.59 1012.84 1013.10 1013.37 1013.67 1014.00 1014.34 1014.67 1014.97 1015.21 1015.39 1015.50 1015.57 1015.61 1015.64 1015.68 1015.73 1015.79 1015.85 1015.89 1015.92
1014.97 1014.97 1014.82 1014.52 1014.11 1013.64 1013.16 1012.72 1012.35 1012.06 1011.85 1011.68 1011.53 1011.37 1011.16 1010.91 1010.63 1010.36 1010.13 1009.99 1009.96 1010.06 1010.27 1010.58 1010.94 1011.32 1011.69 1012.03 1012.35 1012.65 1012.95 1013.26 1013.60 1013.96 1014.32 1014.67 1014.98 1015.23 1015.44 1015.59 1015.70 1015.79 1015.87 1015.95 1016.04 1016.12 1016.19 1016.24 1016.25
1014.79 1014.72 1014.50 1014.17 1013.75 1013.30 1012.85 1012.45 1012.12 1011.87 1011.67 1011.50 1011.34 1011.14 1010.89 1010.60 1010.28 1009.96 1009.70 1009.52 1009.47 1009.54 1009.74 1010.04 1010.42 1010.82 1011.24 1011.64 1012.02 1012.39 1012.76 1013.13 1013.51 1013.89 1014.27 1014.63 1014.95 1015.23 1015.46 1015.66 1015.82 1015.97 1016.11 1016.25 1016.38 1016.49 1016.56 1016.60 1016.58
1014.62 1014.49 1014.24 1013.88 1013.47 1013.02 1012.59 1012.20 1011.87 1011.60 1011.38 1011.19 1010.98 1010.74 1010.46 1010.14 1009.80 1009.46 1009.18 1008.98 1008.90 1008.95 1009.13 1009.43 1009.81 1010.25 1010.72 1011.19 1011.66 1012.11 1012.56 1012.99 1013.42 1013.83 1014.23 1014.60 1014.93 1015.23 1015.50 1015.74 1015.97 1016.18 1016.39 1016.58 1016.75 1016.88 1016.95 1016.97 1016.92
1014.53 1014.36 1014.07 1013.71 1013.28 1012.83 1012.40 1011.99 1011.63 1011.31 1011.04 1010.79 1010.54 1010.27 1009.97 1009.64 1009.29 1008.96 1008.67 1008.46 1008.36 1008.39 1008.55 1008.84 1009.23 1009.70 1010.22 1010.76 1011.31 1011.86 1012.39 1012.89 1013.37 1013.82 1014.24 1014.62 1014.97 1015.29 1015.60 1015.89 1016.17 1016.45 1016.71 1016.95 1017.15 1017.29 1017.35 1017.34 1017.26
1014.53 1014.33 1014.03 1013.66 1013.23 1012.77 1012.30 1011.84 1011.42 1011.03 1010.69 1010.37 1010.07 1009.77 1009.46 1009.14 1008.82 1008.52 1008.24 1008.04 1007.93 1007.94 1008.08 1008.34 1008.73 1009.22 1009.79 1010.40 1011.04 1011.67 1012.28 1012.86 1013.40 1013.89 1014.33 1014.73 1015.10 1015.44 1015.78 1016.11 1016.44 1016.76 1017.07 1017.34 1017.56 1017.70 1017.76 1017.72 1017.60
1014.62 1014.41 1014.11 1013.74 1013.30 1012.82 1012.30 1011.78 1011.26 1010.78 1010.34 1009.94 1009.59 1009.27 1008.97 1008.69 1008.42 1008.16 1007.93 1007.75 1007.65 1007.64 1007.75 1008.00 1008.38 1008.88 1009.48 1010.15 1010.85 1011.57 1012.26 1012.91 1013.50 1014.03 1014.50 1014.92 1015.31 1015.68 1016.04 1016.40 1016.76 1017.12 1017.46 1017.75 1017.98 1018.12 1018.17 1018.11 1017.96
1014.77 1014.56 1014.28 1013.91 1013.47 1012.95 1012.38 1011.76 1011.13 1010.53 1009.98 1009.49 1009.09 1008.75 1008.48 1008.26 1008.05 1007.87 1007.71 1007.57 1007.48 1007.48 1007.58 1007.81 1008.17 1008.68 1009.30 1010.01 1010.77 1011.55 1012.31 1013.02 1013.66 1014.23 1014.74 1015.19 1015.59 1015.98 1016.36 1016.74 1017.12 1017.50 1017.84 1018.14 1018.37 1018.52 1018.56 1018.50 1018.36
1014.90 1014.73 1014.48 1014.13 1013.68 1013.12 1012.47 1011.74 1010.98 1010.24 1009.56 1008.98 1008.51 1008.17 1007.93 1007.77 1007.66 1007.58 1007.50 1007.43 1007.40 1007.41 1007.51 1007.73 1008.09 1008.59 1009.22 1009.96 1010.76 1011.58 1012.40 1013.16 1013.85 1014.46 1015.00 1015.48 1015.91 1016.31 1016.71 1017.10 1017.48 1017.85 1018.20 1018.50 1018.73 1018.88 1018.94 1018.90 1018.78
1014.96 1014.84 1014.63 1014.32 1013.86 1013.25 1012.51 1011.66 1010.75 1009.85 1009.03 1008.34 1007.81 1007.46 1007.25 1007.17 1007.17 1007.20 1007.24 1007.27 1007.30 1007.36 1007.49 1007.72 1008.08 1008.58 1009.21 1009.96 1010.79 1011.65 1012.50 1013.30 1014.03 1014.69 1015.26 1015.76 1016.22 1016.64 1017.04 1017.44 1017.81 1018.18 1018.51 1018.80 1019.03 1019.20 1019.28 1019.29 1019.21
1014.89 1014.84 1014.69 1014.40 1013.93 1013.27 1012.43 1011.44 1010.37 1009.31 1008.34 1007.54 1006.94 1006.57 1006.40 1006.40 1006.51 1006.68 1006.85 1007.00 1007.13 1007.27 1007.45 1007.71 1008.08 1008.59 1009.23 1009.98 1010.82 1011.70 1012.58 1013.41 1014.18 1014.87 1015.48 1016.02 1016.50 1016.94 1017.36 1017.74 1018.11 1018.46 1018.77 1019.05 1019.28 1019.46 1019.59 1019.64 1019.63
1014.67 1014.69 1014.60 1014.34 1013.86 1013.14 1012.20 1011.07 1009.85 1008.62 1007.50 1006.57 1005.90 1005.51 1005.38 1005.46 1005.69 1005.99 1006.30 1006.59 1006.85 1007.09 1007.34 1007.65 1008.06 1008.58 1009.23 1009.99 1010.84 1011.73 1012.62 1013.48 1014.28 1015.01 1015.65 1016.23 1016.75 1017.21 1017.64 1018.02 1018.38 1018.70 1018.99 1019.25 1019.48 1019.67 1019.83 1019.94 1020.01
1014.31 1014.39 1014.35 1014.12 1013.63 1012.86 1011.82 1010.56 1009.19 1007.81 1006.55 1005.51 1004.77 1004.35 1004.25 1004.40 1004.74 1005.18 1005.64 1006.08 1006.47 1006.83 1007.17 1007.55 1008.00 1008.56 1009.22 1009.99 1010.84 1011.73 1012.64 1013.52 1014.35 1015.11 1015.80 1016.42 1016.98 1017.47 1017.91 1018.29 1018.63 1018.92 1019.18 1019.42 1019.63 1019.83 1020.01 1020.17 1020.30
1013.85 1013.98 1013.97 1013.75 1013.25 1012.44 1011.32 1009.96 1008.46 1006.95 1005.58 1004.45 1003.65 1003.21 1003.13 1003.34 1003.77 1004.33 1004.93 1005.51 1006.04 1006.52 1006.97 1007.43 1007.94 1008.53 1009.22 1010.00 1010.85 1011.75 1012.66 1013.56 1014.42 1015.21 1015.95 1016.61 1017.20 1017.72 1018.17 1018.56 1018.88 1019.15 1019.37 1019.56 1019.75 1019.93 1020.11 1020.30 1020.47
1013.32 1013.47 1013.49 1013.29 1012.78 1011.93 1010.76 1009.33 1007.75 1006.16 1004.70 1003.51 1002.66 1002.21 1002.14 1002.40 1002.91 1003.57 1004.28 1004.99 1005.64 1006.24 1006.80 1007.34 1007.92 1008.55 1009.27 1010.06 1010.91 1011.81 1012.73 1013.64 1014.52 1015.35 1016.11 1016.81 1017.44 1017.99 1018.45 1018.83 1019.14 1019.37 1019.55 1019.69 1019.83 1019.97 1020.14 1020.32 1020.50
1012.75 1012.91 1012.94 1012.74 1012.23 1011.37 1010.19 1008.73 1007.12 1005.50 1004.01 1002.79 1001.92 1001.47 1001.41 1001.70 1002.26 1002.99 1003.80 1004.60 1005.36 1006.06 1006.71 1007.34 1007.98 1008.66 1009.41 1010.21 1011.07 1011.97 1012.88 1013.80 1014.68 1015.53 1016.32 1017.04 1017.69 1018.26 1018.73 1019.10 1019.38 1019.57 1019.70 1019.79 1019.87 1019.96 1020.08 1020.23 1020.39
1012.13 1012.28 1012.31 1012.11 1011.61 1010.78 1009.62 1008.19 1006.61 1005.01 1003.54 1002.33 1001.48 1001.04 1001.00 1001.31 1001.90 1002.67 1003.53 1004.41 1005.25 1006.03 1006.77 1007.47 1008.18 1008.90 1009.67 1010.48 1011.34 1012.23 1013.14 1014.04 1014.92 1015.76 1016.56 1017.29 1017.95 1018.52 1018.98 1019.34 1019.59 1019.74 1019.82 1019.85 1019.86 1019.89 1019.94 1020.03 1020.15
1011.44 1011.56 1011.57 1011.38 1010.91 1010.12 1009.03 1007.68 1006.18 1004.67 1003.28 1002.14 1001.33 1000.92 1000.90 1001.22 1001.82 1002.62 1003.51 1004.43 1005.32 1006.18 1006.98 1007.75 1008.51 1009.27 1010.06 1010.89 1011.74 1012.61 1013.49 1014.37 1015.22 1016.05 1016.82 1017.54 1018.18 1018.74 1019.19 1019.52 1019.74 1019.85 1019.88 1019.86 1019.80 1019.76 1019.74 1019.76 1019.82
1010.61 1010.69 1010.68 1010.49 1010.06 1009.35 1008.35 1007.13 1005.78 1004.41 1003.15 1002.12 1001.40 1001.05 1001.05 1001.39 1002.00 1002.79 1003.70 1004.64 1005.57 1006.47 1007.33 1008.16 1008.96 1009.76 1010.58 1011.40 1012.24 1013.09 1013.93 1014.76 1015.58 1016.36 1017.09 1017.77 1018.38 1018.90 1019.32 1019.62 1019.80 1019.88 1019.87 1019.80 1019.69 1019.59 1019.50 1019.46 1019.44
1009.59 1009.62 1009.58 1009.40 1009.01 1008.38 1007.52 1006.47 1005.30 1004.12 1003.04 1002.16 1001.57 1001.29 1001.35 1001.70 1002.31 1003.11 1004.01 1004.97 1005.93 1006.87 1007.78 1008.65 1009.50 1010.33 1011.16 1011.98 1012.80 1013.61 1014.41 1015.19 1015.95 1016.67 1017.34 1017.97 1018.53 1019.00 1019.38 1019.64 1019.79 1019.84 1019.79 1019.69 1019.54 1019.39 1019.25 1019.14 1019.06
Thickness
5709 5714 5715 5707 5687 5667 5672 5686 5699 5706 5717 5727 5731 5732 5728 5728 5728 5732 5753 5757 5758 5756 5752 5749 5746 5743 5740 5736 5733 5730 5729 5728 5727 5725 5724 5722 5720 5719 5718 5717 5717 5716 5715 5716 5715 5715 5715 5714 5713
5703 5706 5700 5686 5666 5657 5666 5686 5696 5708 5720 5727 5731 5730 5729 5733 5741 5746 5750 5753 5755 5753 5750 5746 5743 5740 5737 5734 5730 5727 5725 5724 5723 5722 5720 5718 5717 5715 5715 5714 5713 5712 5711 5710 5710 5710 5710 5709 5708
5698 5696 5681 5666 5657 5657 5674 5692 5699 5708 5717 5724 5726 5729 5728 5731 5739 5744 5750 5751 5750 5748 5746 5743 5739 5736 5734 5731 5727 5724 5722 5720 5719 5718 5716 5715 5713 5712 5711 5710 5709 5708 5706 5705 5705 5705 5704 5704 5703
5687 5678 5666 5655 5658 5666 5677 5690 5696 5700 5712 5722 5725 5724 5729 5738 5741 5745 5748 5747 5744 5742 5741 5739 5735 5732 5730 5727 5724 5721 5718 5717 5715 5714 5712 5711 5709 5708 5708 5707 5705 5703 5702 5701 5700 5700 5699 5699 5698
5675 5662 5653 5648 5657 5669 5677 5686 5694 5695 5702 5714 5719 5719 5724 5738 5741 5743 5742 5741 5738 5737 5736 5734 5731 5728 5726 5723 5720 5718 5715 5713 5712 5710 5709 5707 5706 5705 5705 5703 5701 5699 5698 5696 5696 5695 5695 5694 5694
5655 5648 5637 5640 5656 5667 5674 5684 5691 5694 5698 5708 5713 5714 5722 5735 5735 5735 5737 5736 5734 5733 5731 5730 5728 5725 5722 5719 5716 5714 5711 5710 5708 5707 5706 5704 5703 5702 5702 5700 5698 5695 5694 5692 5691 5691 5691 5690 5690
5645 5637 5635 5643 5652 5660 5673 5680 5686 5691 5694 5703 5710 5709 5718 5729 5732 5732 5731 5730 5729 5729 5727 5726 5724 5721 5718 5715 5712 5710 5708 5706 5704 5703 5702 5700 5699 5698 5698 5696 5694 5692 5690 5688 5687 5687 5687 5687 5686
5645 5634 5635 5640 5649 5659 5672 5680 5688 5689 5691 5703 5707 5703 5710 5724 5728 5727 5725 5724 5724 5724 5723 5722 5720 5717 5714 5711 5708 5706 5704 5702 5701 5699 5698 5696 5695 5694 5694 5692 5690 5688 5686 5685 5684 5684 5684 5684 5683
5640 5624 5628 5639 5646 5657 5668 5671 5679 5686 5689 5696 5702 5706 5715 5720 5720 5718 5716 5716 5717 5718 5718 5718 5716 5713 5710 5707 5704 5702 5700 5699 5697 5695 5694 5692 5691 5690 5689 5687 5685 5684 5682 5680 5680 5680 5680 5679 5678
5628 5621 5634 5645 5650 5655 5659 5661 5666 5673 5675 5683 5693 5703 5708 5710 5711 5710 5710 5711 5712 5714 5715 5715 5712 5709 5706 5703 5700 5698 5697 5695 5693 5691 5689 5688 5687 5685 5683 5682 5680 5679 5677 5675 5674 5673 5672 5671 5670
5621 5622 5634 5642 5648 5651 5650 5653 5660 5662 5664 5674 5680 5687 5695 5699 5703 5706 5707 5709 5712 5712 5712 5712 5710 5706 5702 5699 5697 5694 5693 5691 5689 5687 5685 5684 5682 5680 5678 5677 5675 5674 5672 5669 5667 5665 5663 5662 5661
5616 5622 5630 5636 5643 5644 5645 5648 5650 5655 5663 5675 5679 5683 5687 5690 5695 5701 5705 5707 5708 5708 5709 5709 5707 5703 5699 5696 5693 5691 5689 5687 5685 5683 5681 5679 5677 5675 5673 5671 5670 5668 5665 5662 5659 5656 5654 5653 5652
5611 5617 5624 5630 5634 5637 5640 5641 5644 5653 5664 5670 5673 5677 5680 5684 5690 5697 5703 5706 5706 5705 5707 5706 5704 5701 5697 5693 5690 5688 5686 5684 5681 5678 5677 5675 5672 5669 5667 5664 5662 5660 5656 5653 5651 5648 5646 5645 5644
5607 5610 5614 5621 5627 5632 5635 5641 5642 5656 5660 5662 5666 5670 5676 5681 5687 5690 5696 5701 5703 5705 5706 5706 5703 5699 5695 5690 5687 5685 5683 5679 5676 5674 5672 5670 5667 5664 5660 5657 5654 5651 5648 5645 5644 5641 5639 5638 5636
5602 5601 5605 5613 5620 5626 5628 5637 5647 5657 5656 5657 5662 5667 5674 5680 5684 5687 5693 5699 5704 5706 5707 5705 5703 5698 5694 5689 5686 5682 5679 5675 5672 5670 5668 5666 5662 5658 5654 5650 5646 5643 5640 5638 5637 5635 5633 5631 5628
5595 5593 5593 5606 5614 5620 5616 5630 5646 5654 5653 5656 5660 5664 5670 5678 5684 5687 5692 5697 5702 5704 5704 5703 5702 5696 5692 5688 5683 5679 5675 5671 5668 5665 5662 5659 5655 5651 5647 5642 5638 5635 5633 5631 5629 5626 5624 5621 5619
5582 5582 5585 5594 5607 5609 5608 5619 5637 5646 5646 5651 5655 5658 5664 5672 5679 5685 5689 5694 5698 5700 5701 5700 5699 5694 5689 5684 5679 5674 5669 5664 5661 5659 5655 5651 5647 5644 5640 5634 5630 5627 5625 5623 5621 5616 5614 5611 5608
5570 5573 5578 5583 5593 5594 5597 5609 5621 5632 5636 5642 5648 5654 5659 5665 5673 5680 5684 5689 5693 5695 5696 5695 5693 5688 5683 5677 5671 5665 5659 5655 5653 5651 5648 5643 5640 5636 5632 5626 5622 5619 5616 5613 5611 5607 5604 5600 5597
5564 5564 5566 5572 5579 5578 5588 5602 5613 5620 5628 5636 5644 5651 5656 5661 5669 5673 5678 5682 5685 5687 5688 5688 5685 5681 5678 5673 5666 5658 5650 5646 5643 5642 5638 5635 5632 5628 5624 5618 5614 5611 5607 5602 5599 5596 5593 5589 5586
5551 5549 5552 5557 5563 5568 5578 5596 5609 5616 5625 5635 5641 5649 5656 5660 5663 5667 5670 5673 5676 5679 5680 5680 5678 5675 5673 5670 5663 5654 5645 5638 5634 5631 5628 5625 5623 5620 5615 5611 5606 5602 5597 5592 5588 5584 5579 5575 5572
5539 5538 5539 5538 5545 5552 5556 5587 5607 5620 5627 5637 5644 5651 5656 5659 5660 5660 5663 5666 5668 5670 5672 5674 5670 5667 5665 5661 5655 5645 5637 5631 5625 5620 5617 5615 5614 5610 5606 5602 5597 5593 5588 5581 5576 5572 5566 5561 5557
5530 5533 5532 5530 5525 5530 5542 5559 5598 5611 5619 5629 5638 5644 5651 5656 5658 5658 5659 5661 5663 5664 5664 5665 5663 5660 5658 5656 5651 5644 5637 5627 5620 5614 5609 5605 5603 5600 5596 5592 5588 5583 5577 5571 5565 5559 5554 5548 5543
5517 5524 5522 5520 5514 5517 5529 5532 5585 5601 5611 5621 5630 5638 5646 5653 5656 5657 5660 5662 5660 5657 5657 5656 5654 5652 5650 5649 5646 5641 5632 5622 5611 5605 5600 5595 5592 5589 5586 5582 5577 5571 5565 5559 5553 5547 5541 5535 5530
5509 5506 5504 5503 5500 5514 5532 5519 5566 5585 5606 5616 5626 5635 5644 5651 5653 5656 5657 5655 5651 5649 5649 5649 5647 5644 5642 5640 5638 5635 5625 5615 5604 5597 5591 5586 5581 5578 5574 5570 5565 5559 5553 5547 5540 5534 5529 5523 5518
5492 5485 5487 5490 5496 5507 5522 5525 5564 5584 5601 5613 5622 5630 5639 5645 5647 5648 5647 5648 5646 5644 5643 5642 5640 5635 5633 5631 5629 5625 5619 5610 5601 5592 5585 5578 5572 5566 5562 5558 5553 5547 5541 5535 5529 5522 5517 5511 5506
5484 5481 5480 5480 5484 5486 5504 5523 5560 5579 5592 5606 5617 5625 5631 5635 5639 5642 5644 5646 5644 5641 5638 5637 5634 5628 5623 5621 5617 5613 5607 5600 5591 5583 5577 5570 5563 5557 5552 5547 5541 5535 5529 5523 5517 5511 5505 5500 5494
5479 5476 5482 5476 5478 5477 5492 5518 5544 5568 5575 5589 5602 5613 5621 5626 5630 5635 5638 5639 5639 5636 5634 5631 5627 5619 5613 5609 5606 5601 5595 5589 5581 5573 5566 5559 5553 5547 5541 5536 5530 5524 5518 5512 5506 5500 5494 5488 5482
5480 5476 5470 5470 5475 5479 5486 5500 5530 5554 5563 5574 5588 5602 5613 5618 5624 5630 5633 5633 5632 5629 5625 5621 5617 5611 5604 5599 5596 5591 5585 5579 5571 5564 5556 5549 5543 5537 5531 5525 5519 5513 5507 5501 5495 5489 5484 5477 5470
5476 5473 5473 5472 5473 5465 5472 5509 5541 5546 5554 5565 5581 5597 5609 5617 5622 5626 5627 5625 5622 5619 5615 5610 5606 5601 5594 5588 5584 5580 5574 5568 5561 5553 5545 5539 5533 5527 5521 5515 5508 5502 5496 5490 5484 5478 5472 5465 5458
5487 5484 5477 5472 5474 5470 5472 5511 5543 5544 5551 5560 5574 5590 5604 5614 5618 5619 5617 5613 5610 5608 5605 5600 5596 5591 5584 5579 5574 5569 5563 5556 5549 5541 5535 5530 5523 5517 5511 5504 5498 5491 5485 5479 5473 5467 5460 5453 5445